Time,TemperatureF,DewpointF,PressureIn,WindDirection,WindDirectionDegrees,WindSpeedMPH,WindSpeedGustMPH,Humidity,HourlyPrecipIn,Conditions,Clouds,dailyrainin,SoftwareType,DateUTC
2013-04-16 00:06:00,63.0,25.6,29.44,SE,138,0.0,3.1,24,0.00,,,0.00,VWS V14.01,2013-04-16 04:06:00,
2013-04-16 00:21:00,61.2,25.1,29.44,SE,138,0.0,0.0,25,0.00,,,0.00,VWS V14.01,2013-04-16 04:21:00,
2013-04-16 00:36:00,60.1,25.1,29.44,SE,138,0.0,0.0,26,0.00,,,0.00,VWS V14.01,2013-04-16 04:36:00,
2013-04-16 00:51:00,61.2,26.0,29.44,SSW,195,0.0,0.0,26,0.00,,,0.00,VWS V14.01,2013-04-16 04:51:00,
2013-04-16 01:06:00,60.4,25.4,29.44,SSW,211,0.0,0.0,26,0.00,,,0.00,VWS V14.01,2013-04-16 05:06:00,
2013-04-16 01:21:00,59.9,25.9,29.44,WNW,285,0.0,0.0,27,0.00,,,0.00,VWS V14.01,2013-04-16 05:21:00,
2013-04-16 01:36:00,59.7,26.6,29.44,WNW,285,0.0,0.0,28,0.00,,,0.00,VWS V14.01,2013-04-16 05:36:00,
2013-04-16 01:51:00,59.4,26.3,29.44,NW,307,0.0,0.0,28,0.00,,,0.00,VWS V14.01,2013-04-16 05:51:00,
2013-04-16 02:06:00,59.5,26.4,29.44,NW,307,0.0,0.0,28,0.00,,,0.00,VWS V14.01,2013-04-16 06:06:00,
2013-04-16 02:21:00,59.2,27.0,29.44,NW,307,0.0,0.0,29,0.00,,,0.00,VWS V14.01,2013-04-16 06:21:00,
2013-04-16 02:36:00,59.5,28.1,29.44,NW,307,0.0,0.0,30,0.00,,,0.00,VWS V14.01,2013-04-16 06:36:00,
2013-04-16 02:51:00,59.4,27.9,29.44,NW,307,0.0,0.0,30,0.00,,,0.00,VWS V14.01,2013-04-16 06:51:00,
2013-04-16 03:06:00,59.5,28.1,29.41,NW,307,0.0,0.0,30,0.00,,,0.00,VWS V14.01,2013-04-16 07:06:00,
2013-04-16 03:21:00,59.4,27.9,29.41,NW,307,0.0,0.0,30,0.00,,,0.00,VWS V14.01,2013-04-16 07:21:00,
2013-04-16 03:36:00,58.8,29.0,29.44,NW,307,0.0,0.0,32,0.00,,,0.00,VWS V14.01,2013-04-16 07:36:00,
2013-04-16 03:51:00,58.8,29.0,29.44,NW,307,0.0,0.0,32,0.00,,,0.00,VWS V14.01,2013-04-16 07:51:00,
2013-04-16 04:06:00,58.6,29.6,29.44,NW,307,0.0,0.0,33,0.00,,,0.00,VWS V14.01,2013-04-16 08:06:00,
2013-04-16 04:21:00,58.3,30.1,29.44,NW,306,0.0,0.0,34,0.00,,,0.00,VWS V14.01,2013-04-16 08:21:00,
2013-04-16 04:36:00,58.1,30.6,29.44,NW,306,0.0,0.0,35,0.00,,,0.00,VWS V14.01,2013-04-16 08:36:00,
2013-04-16 04:51:00,58.1,30.6,29.44,WNW,303,0.0,0.0,35,0.00,,,0.00,VWS V14.01,2013-04-16 08:51:00,
2013-04-16 05:06:00,57.6,30.1,29.44,WNW,303,0.0,0.0,35,0.00,,,0.00,VWS V14.01,2013-04-16 09:06:00,
2013-04-16 05:21:00,57.4,30.7,29.44,WNW,303,0.0,0.0,36,0.00,,,0.00,VWS V14.01,2013-04-16 09:21:00,
2013-04-16 05:36:00,58.1,31.3,29.44,WNW,303,0.0,0.0,36,0.00,,,0.00,VWS V14.01,2013-04-16 09:36:00,
2013-04-16 05:51:00,58.1,31.3,29.47,WNW,303,0.0,0.0,36,0.00,,,0.00,VWS V14.01,2013-04-16 09:51:00,
2013-04-16 06:06:00,57.9,31.8,29.47,WNW,303,0.0,0.0,37,0.00,,,0.00,VWS V14.01,2013-04-16 10:06:00,
2013-04-16 06:21:00,57.9,31.8,29.47,WNW,303,0.0,0.0,37,0.00,,,0.00,VWS V14.01,2013-04-16 10:21:00,
2013-04-16 06:36:00,57.7,31.7,29.47,WNW,303,0.0,0.0,37,0.00,,,0.00,VWS V14.01,2013-04-16 10:36:00,
2013-04-16 06:51:00,57.7,31.7,29.50,SSW,204,0.0,0.0,37,0.00,,,0.00,VWS V14.01,2013-04-16 10:51:00,
2013-04-16 07:06:00,57.6,32.2,29.50,SSW,204,0.0,0.0,38,0.00,,,0.00,VWS V14.01,2013-04-16 11:06:00,
2013-04-16 07:21:00,57.2,32.5,29.50,SSW,204,0.0,0.0,39,0.00,,,0.00,VWS V14.01,2013-04-16 11:21:00,
2013-04-16 07:36:00,57.4,32.7,29.50,SSW,204,0.0,0.0,39,0.00,,,0.00,VWS V14.01,2013-04-16 11:36:00,
2013-04-16 07:51:00,57.6,34.1,29.50,SSW,204,0.0,0.0,41,0.00,,,0.00,VWS V14.01,2013-04-16 11:51:00,
2013-04-16 08:06:00,58.3,35.9,29.53,SSW,204,0.0,0.0,43,0.00,,,0.00,VWS V14.01,2013-04-16 12:06:00,
2013-04-16 08:21:00,61.3,37.5,29.53,SSW,204,0.0,0.0,41,0.00,,,0.00,VWS V14.01,2013-04-16 12:21:00,
2013-04-16 08:36:00,63.5,33.9,29.53,WNW,297,0.0,0.0,33,0.00,,,0.00,VWS V14.01,2013-04-16 12:36:00,
2013-04-16 09:06:00,68.0,28.9,29.53,South,186,0.0,0.0,23,0.00,,,0.00,VWS V14.01,2013-04-16 13:06:00,
2013-04-16 09:21:00,68.7,29.5,29.53,ESE,102,0.0,0.0,23,0.00,,,0.00,VWS V14.01,2013-04-16 13:21:00,
2013-04-16 09:36:00,69.4,30.1,29.53,SE,134,0.0,0.0,23,0.00,,,0.00,VWS V14.01,2013-04-16 13:36:00,
2013-04-16 09:51:00,70.3,29.7,29.53,NE,37,0.0,0.0,22,0.00,,,0.00,VWS V14.01,2013-04-16 13:51:00,
2013-04-16 10:06:00,71.8,30.9,29.53,NE,37,0.0,0.0,22,0.00,,,0.00,VWS V14.01,2013-04-16 14:06:00,
2013-04-16 10:21:00,72.9,30.7,29.53,NE,45,0.0,4.0,21,0.00,,,0.00,VWS V14.01,2013-04-16 14:21:00,
2013-04-16 10:36:00,73.6,27.5,29.53,SSE,164,5.8,5.8,18,0.00,,,0.00,VWS V14.01,2013-04-16 14:36:00,
2013-04-16 10:51:00,74.7,28.4,29.53,ESE,112,3.1,5.8,18,0.00,,,0.00,VWS V14.01,2013-04-16 14:51:00,
2013-04-16 11:06:00,75.6,29.1,29.53,ESE,121,2.2,3.1,18,0.00,,,0.00,VWS V14.01,2013-04-16 15:06:00,
2013-04-16 11:21:00,75.6,29.1,29.53,ESE,118,2.7,7.6,18,0.00,,,0.00,VWS V14.01,2013-04-16 15:21:00,
2013-04-16 11:36:00,75.6,29.1,29.53,SSE,153,2.7,5.4,18,0.00,,,0.00,VWS V14.01,2013-04-16 15:36:00,
2013-04-16 11:51:00,76.1,29.6,29.50,SE,131,0.0,4.9,18,0.00,,,0.00,VWS V14.01,2013-04-16 15:51:00,
2013-04-16 12:06:00,77.4,30.6,29.50,ESE,120,0.0,0.0,18,0.00,,,0.00,VWS V14.01,2013-04-16 16:06:00,
2013-04-16 12:21:00,77.2,30.4,29.50,ENE,73,0.0,2.2,18,0.00,,,0.00,VWS V14.01,2013-04-16 16:21:00,
2013-04-16 12:36:00,78.1,31.2,29.50,ESE,116,0.0,3.6,18,0.00,,,0.00,VWS V14.01,2013-04-16 16:36:00,
2013-04-16 13:06:00,79.5,30.9,29.50,SE,136,2.2,7.6,17,0.00,,,0.00,VWS V14.01,2013-04-16 17:06:00,
2013-04-16 13:21:00,80.2,31.5,29.47,SE,133,0.0,2.2,17,0.00,,,0.00,VWS V14.01,2013-04-16 17:21:00,
2013-04-16 13:36:00,79.5,30.9,29.47,SE,129,0.0,3.6,17,0.00,,,0.00,VWS V14.01,2013-04-16 17:36:00,
2013-04-16 13:51:00,80.6,31.8,29.47,SE,129,0.0,0.0,17,0.00,,,0.00,VWS V14.01,2013-04-16 17:51:00,
2013-04-16 14:06:00,80.6,31.8,29.47,ESE,121,0.0,0.0,17,0.00,,,0.00,VWS V14.01,2013-04-16 18:06:00,
2013-04-16 14:21:00,80.6,31.8,29.47,SSW,195,0.0,0.0,17,0.00,,,0.00,VWS V14.01,2013-04-16 18:21:00,
2013-04-16 14:36:00,80.2,31.5,29.47,SSE,157,0.0,0.0,17,0.00,,,0.00,VWS V14.01,2013-04-16 18:36:00,
2013-04-16 14:51:00,80.6,31.8,29.47,SSE,157,0.0,0.0,17,0.00,,,0.00,VWS V14.01,2013-04-16 18:51:00,
2013-04-16 15:06:00,83.8,32.9,29.44,NNE,29,0.0,0.0,16,0.00,,,0.00,VWS V14.01,2013-04-16 19:06:00,
2013-04-16 15:21:00,86.2,34.8,29.44,North,0,0.0,0.0,16,0.00,,,0.00,VWS V14.01,2013-04-16 19:21:00,
2013-04-16 15:36:00,85.3,34.1,29.41,North,353,0.0,0.0,16,0.00,,,0.00,VWS V14.01,2013-04-16 19:36:00,
2013-04-16 15:51:00,84.9,33.8,29.41,West,270,0.0,0.0,16,0.00,,,0.00,VWS V14.01,2013-04-16 19:51:00,
2013-04-16 16:06:00,83.3,32.5,29.41,ESE,114,0.0,3.6,16,0.00,,,0.00,VWS V14.01,2013-04-16 20:06:00,
2013-04-16 16:21:00,84.6,33.5,29.41,SE,126,0.0,0.0,16,0.00,,,0.00,VWS V14.01,2013-04-16 20:21:00,
2013-04-16 16:36:00,83.1,32.3,29.41,SE,126,0.0,0.0,16,0.00,,,0.00,VWS V14.01,2013-04-16 20:36:00,
2013-04-16 16:51:00,83.8,32.9,29.41,SE,126,0.0,0.0,16,0.00,,,0.00,VWS V14.01,2013-04-16 20:51:00,
2013-04-16 17:06:00,83.8,32.9,29.38,SE,126,0.0,0.0,16,0.00,,,0.00,VWS V14.01,2013-04-16 21:06:00,
2013-04-16 17:21:00,83.3,32.5,29.38,ESE,120,0.0,0.0,16,0.00,,,0.00,VWS V14.01,2013-04-16 21:21:00,
2013-04-16 17:36:00,81.9,32.8,29.38,SW,218,0.0,0.0,17,0.00,,,0.00,VWS V14.01,2013-04-16 21:36:00,
2013-04-16 17:51:00,81.0,32.1,29.38,SW,221,0.0,0.0,17,0.00,,,0.00,VWS V14.01,2013-04-16 21:51:00,
2013-04-16 18:06:00,80.6,31.8,29.38,SSW,204,0.0,0.0,17,0.00,,,0.00,VWS V14.01,2013-04-16 22:06:00,
2013-04-16 18:21:00,79.2,30.6,29.38,WSW,239,0.0,0.0,17,0.00,,,0.00,VWS V14.01,2013-04-16 22:21:00,
2013-04-16 18:51:00,78.3,31.3,29.38,WSW,239,0.0,0.0,18,0.00,,,0.00,VWS V14.01,2013-04-16 22:51:00,
2013-04-16 19:06:00,75.6,29.1,29.35,WSW,239,0.0,0.0,18,0.00,,,0.00,VWS V14.01,2013-04-16 23:06:00,
2013-04-16 19:21:00,74.5,28.2,29.38,WSW,239,0.0,0.0,18,0.00,,,0.00,VWS V14.01,2013-04-16 23:21:00,
2013-04-16 19:36:00,73.0,28.4,29.38,WSW,239,0.0,0.0,19,0.00,,,0.00,VWS V14.01,2013-04-16 23:36:00,
2013-04-16 19:51:00,71.4,27.0,29.38,WSW,239,0.0,0.0,19,0.00,,,0.00,VWS V14.01,2013-04-16 23:51:00,
2013-04-16 20:06:00,70.5,26.3,29.38,WSW,239,0.0,0.0,19,0.00,,,0.00,VWS V14.01,2013-04-17 00:06:00,
2013-04-16 20:21:00,68.7,28.4,29.38,WSW,238,0.0,0.0,22,0.00,,,0.00,VWS V14.01,2013-04-17 00:21:00,
2013-04-16 20:36:00,67.8,27.6,29.38,WSW,238,0.0,0.0,22,0.00,,,0.00,VWS V14.01,2013-04-17 00:36:00,
2013-04-16 20:51:00,67.5,28.4,29.38,WSW,238,0.0,0.0,23,0.00,,,0.00,VWS V14.01,2013-04-17 00:51:00,
2013-04-16 21:06:00,66.9,27.9,29.41,WSW,238,0.0,0.0,23,0.00,,,0.00,VWS V14.01,2013-04-17 01:06:00,
2013-04-16 21:21:00,66.7,27.8,29.41,WSW,238,0.0,0.0,23,0.00,,,0.00,VWS V14.01,2013-04-17 01:21:00,
2013-04-16 21:36:00,66.7,28.8,29.41,WSW,238,0.0,0.0,24,0.00,,,0.00,VWS V14.01,2013-04-17 01:36:00,
2013-04-16 21:51:00,66.2,28.4,29.44,WSW,238,0.0,0.0,24,0.00,,,0.00,VWS V14.01,2013-04-17 01:51:00,
2013-04-16 22:06:00,66.2,29.4,29.44,WSW,238,0.0,0.0,25,0.00,,,0.00,VWS V14.01,2013-04-17 02:06:00,
2013-04-16 22:21:00,71.8,30.9,29.50,West,267,5.4,12.3,22,0.00,,,0.00,VWS V14.01,2013-04-17 02:21:00,
2013-04-16 22:36:00,70.2,29.6,29.53,North,4,0.0,10.1,22,0.00,,,0.00,VWS V14.01,2013-04-17 02:36:00,
2013-04-16 22:51:00,67.8,31.7,29.53,SE,134,0.0,4.0,26,0.00,,,0.00,VWS V14.01,2013-04-17 02:51:00,
2013-04-16 23:06:00,66.0,32.9,29.53,SE,136,0.0,0.0,29,0.00,,,0.00,VWS V14.01,2013-04-17 03:06:00,
2013-04-16 23:21:00,64.9,36.7,29.53,SW,227,0.0,0.0,35,0.00,,,0.00,VWS V14.01,2013-04-17 03:21:00,
2013-04-16 23:36:00,64.2,37.4,29.53,SW,227,0.0,0.0,37,0.00,,,0.00,VWS V14.01,2013-04-17 03:36:00,
2013-04-16 23:51:00,64.0,41.7,29.56,WSW,249,0.0,0.0,44,0.00,,,0.00,VWS V14.01,2013-04-17 03:51:00,